New Orleans Weather Page

Compiled by Joey Kelly

 

Want a detailed forecast?
Or want to check out the National Hurricane Center?
Or take a look at Jay C. Theriot's excellent hurricane tracking page instead?

 

NOAA Weather: Moisant International Airport

Data is taken from the Aviation Weather Service at NOAA.

This is the current weather at New Orleans International Airport
in New Orleans, Louisiana, United States:

Temp: 77.0 F
Wind: 10.4 MPH
Wind direction: South/Southwest at 200°
Dewpoint: 60.8 F
Pressure: 30.07 inches of Mercury
Visibility: 10 Statute Miles
Sky: Few at 2500ft
Weather:

The raw METAR data is
KMSY 171853Z 20009KT 10SM FEW025 25/16 A3007 RMK AO2 SLP187 T02500156


 

New Orleans Metro Radar (Breck)
New Orleans Metro Radar (Breck)

 

Regional Radar (Breck)
Regional Radar (Breck)

 

Gulf Coast Radar
Gulf Coast Radar

 

7-Day Forecast (WWL)
7-Day Forecast (WWL)

 

Southeastern U.S. Temperatures
Southeastern U.S. Temperatures

 

U.S. Surface Map
U.S. Surface Map

 

NHC Caribbean Water Vapor
NHC Caribbean Water Vapor

 

NHC 2-Day Weather Outlook
NHC 2-Day Weather Outlook

 

NHC Atlantic Tropical Cyclone Avtivity
NHC Atlantic Tropical Cyclone Avtivity

 

America and Atlantic Wind Patterns (interactive widget)

 


Other Weather Links:

National Hurricane Center
Storm Tracking (Fox-8/Bob Breck)
Louisiana Hurricane Season Notes

 

 

KellyNet Computer Services